Location: Cherry Springs State Park
(41.6616°N, 77.8240°W)
Time: 05:50:57
(UTC-05:00)

Daily predictions for brighter satellites

Satellite Brightness Start Highest point End
(mag) Time Altitude Azimuth Time Altitude Azimuth Time Altitude Azimuth
Cosmos 2237 Rocket 4.4 03:54:16 20° ESE 03:54:16 20° ESE 03:56:13 10° ESE
Cosmos 2297 Rocket 4.0 04:05:03 28° E 04:05:03 28° E 04:09:01 10° NE
Cosmos 2227 Rocket 3.7 04:18:47 31° NE 04:18:47 31° NE 04:21:51 10° NE
USA 234 4.4 04:33:04 10° E 04:38:45 33° NNE 04:40:03 30° N
Cosmos 2082 4.2 04:45:40 56° NE 04:45:40 56° NE 04:50:13 10° NNE
Cosmos 2333 Rocket 3.7 04:50:15 26° S 04:50:15 26° S 04:52:39 10° SSE
Cosmos 2219 Rocket 4.3 05:11:11 13° SSW 05:11:11 13° SSW 05:11:50 10° S
Cosmos 1743 Rocket 4.0 05:09:30 60° ENE 05:09:43 61° E 05:14:04 10° SSE
Cosmos 2233 Rocket 4.3 05:06:33 10° S 05:12:41 66° E 05:18:55 10° NNE
Cosmos 1842 Rocket 4.1 05:15:08 10° S 05:19:22 56° E 05:23:38 10° NNE
COSMO-SKYMED 1 2.7 05:15:59 10° SSE 05:20:18 73° ENE 05:21:11 54° N
NOAA 6 3.9 05:21:28 10° NNE 05:26:40 80° WNW 05:31:51 10° SSW
Cosmos 968 Rocket 3.9 05:22:13 10° S 05:27:23 62° ESE 05:32:37 10° NNE
SeaSat 1 4.3 05:23:46 10° N 05:25:11 17° N 05:25:11 17° N
Cosmos 1816 Rocket 4.4 05:24:10 10° N 05:30:29 75° W 05:36:43 10° S
BREEZE-M DEB (TANK) 4.4 05:31:43 21° NNE 05:31:43 21° NNE 05:33:01 10° NE
Cosmos 2151 3.8 05:29:47 10° N 05:33:54 50° E 05:38:00 10° SSE
Cosmos 2237 Rocket 3.0 05:36:10 33° SW 05:36:10 33° SW 05:40:12 10° S
USA 229 DEB 3.7 05:33:34 32° NW 05:37:06 70° WSW 05:44:17 10° SSE
USA 229 3.7 05:33:38 32° NW 05:37:12 71° WSW 05:44:23 10° SSE
Cosmos 1500 Rocket 3.5 05:34:37 25° N 05:37:14 88° E 05:41:42 10° S
SL-16 R/B 2.1 05:35:44 30° NNW 05:38:36 79° WSW 05:44:15 10° SSE
Tsikada Rocket 4.1 05:33:59 10° NNW 05:40:08 51° W 05:46:12 10° SSW
Cosmos 2346 Rocket 4.3 05:35:30 10° N 05:41:40 84° W 05:47:44 10° S
Cosmos 2297 Rocket 2.5 05:46:57 37° W 05:48:03 41° WNW 05:53:25 10° N
Meteor 1-11 4.5 05:45:16 10° N 05:51:07 75° E 05:56:55 10° SSE
Cosmos 220 Rocket 3.9 05:48:36 10° SSW 05:53:01 68° WNW 05:57:24 10° NNE
Cosmos 1340 Rocket 3.4 05:49:48 10° N 05:53:41 56° ENE 05:57:34 10° SSE
Aureole 2 Rocket 3.4 05:57:16 37° W 05:57:22 37° WSW 06:01:13 10° S
Cosmos 540 Rocket 4.2 05:58:34 29° W 05:58:34 29° W 06:02:57 10° SSW
Cosmos 2227 Rocket 3.1 06:00:39 26° NW 06:00:43 26° NW 06:05:24 10° N
Cosmos 1464 Rocket 4.3 05:55:17 10° S 06:01:36 72° E 06:07:52 10° NNE
Meteor 1-16 Rocket 4.0 05:56:26 10° SSW 06:01:54 79° W 06:07:15 10° N
Cosmos 1271 Rocket 2.6 05:59:30 10° S 06:03:20 87° E 06:07:09 10° N
IDEFIX/ARIANE 42P 3.7 05:59:28 10° NNE 06:04:33 46° E 06:09:35 10° S
SL-14 R/B 3.2 06:02:53 11° NNW 06:06:41 65° W 06:10:41 10° S
OAO 2 Rocket 4.2 06:04:01 20° WSW 06:06:51 37° S 06:11:23 10° ESE
ISS -3.5 06:06:00 43° WNW 06:06:56 85° SW 06:10:10 10° SE
Cosmos 304 Rocket 4.0 06:05:04 23° NW 06:07:43 46° WSW 06:12:16 10° S
SKYMED 2 4.2 06:04:36 10° SSW 06:08:30 32° W 06:09:51 27° WNW
Meteor 1-28 Rocket 3.4 06:04:54 10° S 06:08:31 46° W 06:10:38 22° NW
Meteor 1-4 Rocket 3.2 06:09:10 10° SW 06:12:35 35° WNW 06:16:05 10° N
YAOGAN 1 4.1 06:10:53 10° NNE 06:14:59 40° E 06:19:03 10° SSE
CZ-4 R/B 1.8 06:15:52 10° NNE 06:19:53 68° E 06:23:58 10° S
Meteor 2-1 Rocket 4.2 06:14:27 10° S 06:20:02 86° W 06:25:48 10° N
Meteor 2-12 Rocket 4.4 06:14:19 10° S 06:20:28 84° W 06:26:40 10° N
Cosmos 1072 Rocket 4.4 06:14:41 10° SSW 06:20:52 75° W 06:27:02 10° N
USA 234 3.4 06:14:37 10° SE 06:21:11 80° NE 06:27:25 12° NW
Cosmos 1538 Rocket 4.1 06:16:13 10° NNW 06:21:29 56° WSW 06:26:42 10° S
Cosmos 1943 4.3 06:16:56 10° NNW 06:22:22 42° ENE 06:27:45 10° SE
ERBS 2.3 06:23:54 20° NW 06:26:12 83° NE 06:29:37 10° SE
Aureole 1 4.1 06:24:03 10° SSW 06:27:04 83° WNW 06:30:34 10° NNE
Cosmos 1626 2.5 06:23:30 10° N 06:27:14 65° E 06:30:56 10° SSE
Cosmos 1666 Rocket 4.2 06:23:18 10° N 06:27:44 61° E 06:32:08 10° SSE
Cosmos 923 Rocket 4.1 06:23:47 10° NNW 06:29:01 78° ENE 06:34:16 10° SSE
NOSS 3-1 (C) 4.1 06:25:00 10° NW 06:32:36 73° WSW 06:40:56 10° SSE
PSLV R/B 4.2 06:30:06 10° SW 06:33:21 45° SSE 06:36:34 10° E
Ariane Rocket 3.4 06:28:53 10° N 06:33:37 40° WNW 06:38:21 10° SW
Coronas F rocket 2.7 06:33:44 10° N 06:36:00 34° E 06:38:14 10° SSE
Cosmos 2221 2.6 06:32:06 10° SSW 06:36:21 53° W 06:40:36 10° N
SL-8 R/B 4.0 06:34:13 15° WNW 06:38:12 61° NNE 06:42:57 10° ESE
Cosmos 1680 Rocket 3.8 06:33:03 10° NNW 06:38:22 73° ENE 06:43:40 10° SSE
TELKOM 3 2.9 06:36:34 12° WSW 06:38:53 64° NNW 06:41:01 10° NE
CSL-04 Debris 4.3 06:33:39 10° N 06:38:59 54° WNW 06:44:17 10° SW
MSX 4.4 06:36:33 10° NNE 06:42:18 65° ESE 06:48:01 10° S
Cosmos 1603 3.7 06:36:49 10° NNW 06:42:23 64° WSW 06:47:58 10° S
CORIOLIS 4.5 06:37:38 10° NNE 06:43:04 74° ESE 06:48:29 10° S
ATLAS CENTAUR R/B 4.4 06:43:23 10° NNW 06:47:00 20° NNE 06:54:02 10° ENE
Cosmos 389 Rocket 2.9 06:45:25 10° S 06:49:03 70° E 06:52:44 10° NNE
Cosmos 1908 3.4 06:46:07 10° S 06:49:56 78° E 06:53:46 10° N
Cosmos 2263 Rocket 3.3 06:45:39 10° S 06:51:05 51° ESE 06:56:36 10° NE
AQUARIUS 4.1 06:48:28 10° N 06:52:58 67° WNW 06:57:25 10° SSW
Cosmos 2058 3.9 06:49:56 10° NNW 06:53:21 25° W 06:56:45 10° SW
Cosmos 2228 Rocket 3.4 06:52:57 10° S 06:57:23 73° E 07:01:48 10° NNE
Iridium 4 Rocket 4.4 06:54:50 10° NNE 06:58:54 44° E 07:03:11 10° SSE
Cosmos 1470 Rocket 4.3 06:55:49 10° N 07:00:04 55° E 07:04:19 10° SSE
MONITOR-E 4.2 06:57:11 10° NNE 07:00:21 88° W 07:03:31 10° SSW
Cosmos 292 Rocket 3.9 06:58:36 10° NNW 07:03:18 56° WSW 07:07:58 10° S
CZ-2C R/B 2.5 06:59:03 10° N 07:03:28 46° WNW 07:07:49 10° SW
